Time,TemperatureF,DewpointF,PressureIn,WindDirection,WindDirectionDegrees,WindSpeedMPH,WindSpeedGustMPH,Humidity,HourlyPrecipIn,Conditions,Clouds,dailyrainin,SoftwareType,DateUTC
2013-01-01 00:00:00,33.7,32.7,30.10,SW,229,0.0,2.0,96,0.00,,BKN055,0.00,VWS V14.00,2013-01-01 05:00:00,
2013-01-01 00:02:00,33.7,32.7,30.10,SW,229,0.0,2.0,96,0.00,,BKN055,0.00,VWS V14.00,2013-01-01 05:02:00,
2013-01-01 00:10:00,33.6,32.6,30.09,WSW,248,0.0,3.0,96,0.00,,BKN055,0.01,VWS V14.00,2013-01-01 05:10:00,
2013-01-01 00:12:00,33.6,32.6,30.09,WSW,248,0.0,3.0,96,0.00,,BKN055,0.01,VWS V14.00,2013-01-01 05:12:00,
2013-01-01 00:20:00,33.5,32.5,30.08,SW,233,0.0,3.0,96,0.00,,BKN055,0.01,VWS V14.00,2013-01-01 05:20:00,
2013-01-01 00:22:00,33.5,32.5,30.08,SW,233,0.0,3.0,96,0.00,,BKN055,0.01,VWS V14.00,2013-01-01 05:22:00,
2013-01-01 00:30:00,33.5,32.5,30.07,WSW,248,0.0,2.0,96,0.00,,BKN055,0.01,VWS V14.00,2013-01-01 05:30:00,
2013-01-01 00:32:00,33.5,32.5,30.07,WSW,248,0.0,2.0,96,0.00,,BKN055,0.01,VWS V14.00,2013-01-01 05:32:00,
2013-01-01 00:40:00,33.6,32.8,30.08,WSW,250,1.0,2.0,97,0.00,,BKN055,0.01,VWS V14.00,2013-01-01 05:40:00,
2013-01-01 00:42:00,33.6,32.8,30.08,WSW,250,1.0,2.0,97,0.00,,BKN055,0.01,VWS V14.00,2013-01-01 05:42:00,
2013-01-01 00:50:00,33.7,32.9,30.07,WSW,250,0.0,2.0,97,0.00,,BKN055,0.02,VWS V14.00,2013-01-01 05:50:00,
2013-01-01 00:52:00,33.7,32.9,30.07,WSW,250,0.0,2.0,97,0.00,,BKN055,0.02,VWS V14.00,2013-01-01 05:52:00,
2013-01-01 01:00:00,33.7,32.9,30.07,WSW,239,0.0,3.0,97,0.00,,BKN055,0.02,VWS V14.00,2013-01-01 06:00:00,
2013-01-01 01:02:00,33.7,32.9,30.07,WSW,239,0.0,3.0,97,0.00,,BKN055,0.02,VWS V14.00,2013-01-01 06:02:00,
2013-01-01 01:10:00,33.7,32.9,30.06,SW,229,0.0,3.0,97,0.02,,BKN055,0.02,VWS V14.00,2013-01-01 06:10:00,
2013-01-01 01:12:00,33.7,32.9,30.06,SW,229,0.0,3.0,97,0.02,,BKN055,0.02,VWS V14.00,2013-01-01 06:12:00,
2013-01-01 01:20:00,33.7,32.9,30.07,WSW,241,0.0,4.0,97,0.01,,BKN055,0.02,VWS V14.00,2013-01-01 06:20:00,
2013-01-01 01:22:00,33.7,32.9,30.07,WSW,241,0.0,4.0,97,0.01,,BKN055,0.02,VWS V14.00,2013-01-01 06:22:00,
2013-01-01 01:30:00,33.7,32.9,30.07,WSW,237,0.0,3.0,97,0.02,,BKN055,0.03,VWS V14.00,2013-01-01 06:30:00,
2013-01-01 01:32:00,33.7,32.9,30.07,WSW,237,0.0,3.0,97,0.02,,BKN055,0.03,VWS V14.00,2013-01-01 06:32:00,
2013-01-01 01:40:00,33.8,33.0,30.06,WSW,241,0.0,3.0,97,0.02,,BKN055,0.03,VWS V14.00,2013-01-01 06:40:00,
2013-01-01 01:42:00,33.8,33.0,30.06,WSW,241,0.0,3.0,97,0.02,,BKN055,0.03,VWS V14.00,2013-01-01 06:42:00,
2013-01-01 01:50:00,33.8,33.0,30.05,WSW,244,0.0,2.0,97,0.02,,BKN055,0.03,VWS V14.00,2013-01-01 06:50:00,
2013-01-01 01:52:00,33.8,33.0,30.05,WSW,244,0.0,2.0,97,0.02,,BKN055,0.03,VWS V14.00,2013-01-01 06:52:00,
2013-01-01 02:00:00,33.6,32.8,30.05,WSW,255,0.0,2.0,97,0.01,,BKN055,0.03,VWS V14.00,2013-01-01 07:00:00,
2013-01-01 02:02:00,33.6,32.8,30.05,WSW,255,0.0,2.0,97,0.01,,BKN055,0.03,VWS V14.00,2013-01-01 07:02:00,
2013-01-01 02:10:00,33.5,32.7,30.06,WSW,254,0.0,0.0,97,0.02,,BKN055,0.04,VWS V14.00,2013-01-01 07:10:00,
2013-01-01 02:12:00,33.5,32.7,30.06,WSW,254,0.0,0.0,97,0.02,,BKN055,0.04,VWS V14.00,2013-01-01 07:12:00,
2013-01-01 02:20:00,33.4,32.6,30.06,WSW,254,0.0,0.0,97,0.02,,BKN055,0.04,VWS V14.00,2013-01-01 07:20:00,
2013-01-01 02:22:00,33.4,32.6,30.06,WSW,254,0.0,0.0,97,0.02,,BKN055,0.04,VWS V14.00,2013-01-01 07:22:00,
2013-01-01 02:30:00,33.2,32.4,30.06,WSW,255,0.0,0.0,97,0.02,,BKN055,0.04,VWS V14.00,2013-01-01 07:30:00,
2013-01-01 02:32:00,33.2,32.4,30.06,WSW,255,0.0,0.0,97,0.02,,BKN055,0.04,VWS V14.00,2013-01-01 07:32:00,
2013-01-01 02:40:00,33.2,32.4,30.06,WSW,255,0.0,0.0,97,0.01,,BKN055,0.04,VWS V14.00,2013-01-01 07:40:00,
2013-01-01 02:42:00,33.2,32.4,30.06,WSW,255,0.0,0.0,97,0.01,,BKN055,0.04,VWS V14.00,2013-01-01 07:42:00,
2013-01-01 02:50:00,33.2,32.4,30.07,WSW,255,0.0,0.0,97,0.01,,BKN055,0.04,VWS V14.00,2013-01-01 07:50:00,
2013-01-01 02:52:00,33.2,32.4,30.07,WSW,255,0.0,0.0,97,0.01,,BKN055,0.04,VWS V14.00,2013-01-01 07:52:00,
2013-01-01 03:00:00,33.3,32.5,30.06,WSW,256,0.0,2.0,97,0.01,,BKN055,0.04,VWS V14.00,2013-01-01 08:00:00,
2013-01-01 03:02:00,33.3,32.5,30.06,WSW,256,0.0,2.0,97,0.01,,BKN055,0.04,VWS V14.00,2013-01-01 08:02:00,
2013-01-01 03:10:00,33.4,32.6,30.07,West,270,0.0,0.0,97,0.02,,BKN055,0.05,VWS V14.00,2013-01-01 08:10:00,
2013-01-01 03:12:00,33.4,32.6,30.07,West,270,0.0,0.0,97,0.02,,BKN055,0.05,VWS V14.00,2013-01-01 08:12:00,
2013-01-01 03:20:00,33.2,32.4,30.07,West,270,0.0,0.0,97,0.01,,BKN055,0.05,VWS V14.00,2013-01-01 08:20:00,
2013-01-01 03:22:00,33.2,32.4,30.07,West,270,0.0,0.0,97,0.01,,BKN055,0.05,VWS V14.00,2013-01-01 08:22:00,
2013-01-01 03:30:00,33.1,32.3,30.07,West,270,0.0,0.0,97,0.01,,BKN055,0.05,VWS V14.00,2013-01-01 08:30:00,
2013-01-01 03:32:00,33.1,32.3,30.07,West,270,0.0,0.0,97,0.01,,BKN055,0.05,VWS V14.00,2013-01-01 08:32:00,
2013-01-01 03:40:00,33.1,32.6,30.07,West,270,0.0,0.0,98,0.01,,BKN055,0.05,VWS V14.00,2013-01-01 08:40:00,
2013-01-01 03:42:00,33.1,32.6,30.07,West,270,0.0,0.0,98,0.01,,BKN055,0.05,VWS V14.00,2013-01-01 08:42:00,
2013-01-01 03:50:00,33.0,32.5,30.06,West,270,0.0,0.0,98,0.01,,BKN055,0.05,VWS V14.00,2013-01-01 08:50:00,
2013-01-01 03:52:00,33.0,32.5,30.06,West,270,0.0,0.0,98,0.01,,BKN055,0.05,VWS V14.00,2013-01-01 08:52:00,
2013-01-01 04:00:00,33.0,32.5,30.07,West,270,0.0,0.0,98,0.01,,BKN055,0.05,VWS V14.00,2013-01-01 09:00:00,
2013-01-01 04:02:00,33.0,32.5,30.07,West,270,0.0,0.0,98,0.01,,BKN055,0.05,VWS V14.00,2013-01-01 09:02:00,
2013-01-01 04:10:00,33.0,32.5,30.06,West,271,0.0,0.0,98,0.01,,BKN055,0.05,VWS V14.00,2013-01-01 09:10:00,
2013-01-01 04:12:00,33.0,32.5,30.06,West,271,0.0,0.0,98,0.01,,BKN055,0.05,VWS V14.00,2013-01-01 09:12:00,
2013-01-01 04:20:00,33.0,32.5,30.06,West,271,0.0,0.0,98,0.00,,BKN055,0.05,VWS V14.00,2013-01-01 09:20:00,
2013-01-01 04:22:00,33.0,32.5,30.06,West,271,0.0,0.0,98,0.00,,BKN055,0.05,VWS V14.00,2013-01-01 09:22:00,
2013-01-01 04:30:00,33.1,32.6,30.06,West,271,0.0,0.0,98,0.00,,BKN055,0.05,VWS V14.00,2013-01-01 09:30:00,
2013-01-01 04:32:00,33.1,32.6,30.06,West,271,0.0,0.0,98,0.00,,BKN055,0.05,VWS V14.00,2013-01-01 09:32:00,
2013-01-01 04:40:00,33.1,32.6,30.07,West,271,0.0,0.0,98,0.01,,BKN055,0.06,VWS V14.00,2013-01-01 09:40:00,
2013-01-01 04:42:00,33.1,32.6,30.07,West,271,0.0,0.0,98,0.01,,BKN055,0.06,VWS V14.00,2013-01-01 09:42:00,
2013-01-01 04:50:00,33.1,32.6,30.07,West,271,0.0,0.0,98,0.01,,BKN055,0.06,VWS V14.00,2013-01-01 09:50:00,
2013-01-01 04:52:00,33.1,32.6,30.07,West,271,0.0,0.0,98,0.01,,BKN055,0.06,VWS V14.00,2013-01-01 09:52:00,
2013-01-01 05:00:00,33.1,32.6,30.07,West,271,0.0,0.0,98,0.01,,BKN055,0.06,VWS V14.00,2013-01-01 10:00:00,
2013-01-01 05:02:00,33.1,32.6,30.07,West,271,0.0,0.0,98,0.01,,BKN055,0.06,VWS V14.00,2013-01-01 10:02:00,
2013-01-01 05:10:00,33.2,32.7,30.07,West,271,0.0,0.0,98,0.01,,BKN055,0.06,VWS V14.00,2013-01-01 10:10:00,
2013-01-01 05:12:00,33.2,32.7,30.07,West,271,0.0,0.0,98,0.01,,BKN055,0.06,VWS V14.00,2013-01-01 10:12:00,
2013-01-01 05:20:00,33.4,32.9,30.07,West,271,0.0,0.0,98,0.01,,BKN055,0.06,VWS V14.00,2013-01-01 10:20:00,
2013-01-01 05:22:00,33.4,32.9,30.07,West,271,0.0,0.0,98,0.01,,BKN055,0.06,VWS V14.00,2013-01-01 10:22:00,
2013-01-01 05:30:00,33.4,32.9,30.06,West,271,0.0,0.0,98,0.01,,BKN055,0.06,VWS V14.00,2013-01-01 10:30:00,
2013-01-01 05:32:00,33.4,32.9,30.06,West,271,0.0,0.0,98,0.01,,BKN055,0.06,VWS V14.00,2013-01-01 10:32:00,
2013-01-01 05:40:00,33.3,32.8,30.07,West,271,0.0,0.0,98,0.01,,BKN055,0.06,VWS V14.00,2013-01-01 10:40:00,
2013-01-01 05:42:00,33.3,32.8,30.07,West,271,0.0,0.0,98,0.01,,BKN055,0.06,VWS V14.00,2013-01-01 10:42:00,
2013-01-01 05:50:00,33.2,32.7,30.07,West,271,0.0,0.0,98,0.00,,BKN055,0.06,VWS V14.00,2013-01-01 10:50:00,
2013-01-01 05:52:00,33.2,32.7,30.07,West,271,0.0,0.0,98,0.00,,BKN055,0.06,VWS V14.00,2013-01-01 10:52:00,
2013-01-01 06:00:00,33.1,32.6,30.06,West,272,0.0,0.0,98,0.00,,BKN055,0.06,VWS V14.00,2013-01-01 11:00:00,
2013-01-01 06:02:00,33.1,32.6,30.06,West,272,0.0,0.0,98,0.00,,BKN055,0.06,VWS V14.00,2013-01-01 11:02:00,
2013-01-01 06:10:00,33.0,32.5,30.07,West,272,0.0,0.0,98,0.00,,BKN055,0.06,VWS V14.00,2013-01-01 11:10:00,
2013-01-01 06:12:00,33.0,32.5,30.07,West,272,0.0,0.0,98,0.00,,BKN055,0.06,VWS V14.00,2013-01-01 11:12:00,
2013-01-01 06:20:00,33.0,32.5,30.07,West,272,0.0,0.0,98,0.00,,BKN055,0.06,VWS V14.00,2013-01-01 11:20:00,
2013-01-01 06:22:00,33.0,32.5,30.07,West,272,0.0,0.0,98,0.00,,BKN055,0.06,VWS V14.00,2013-01-01 11:22:00,
2013-01-01 06:30:00,33.0,32.5,30.07,West,272,0.0,0.0,98,0.00,,BKN055,0.06,VWS V14.00,2013-01-01 11:30:00,
2013-01-01 06:32:00,33.0,32.5,30.07,West,272,0.0,0.0,98,0.00,,BKN055,0.06,VWS V14.00,2013-01-01 11:32:00,
2013-01-01 06:40:00,33.0,32.5,30.08,West,272,0.0,0.0,98,0.00,,BKN055,0.06,VWS V14.00,2013-01-01 11:40:00,
2013-01-01 06:42:00,33.0,32.5,30.08,West,272,0.0,0.0,98,0.00,,BKN055,0.06,VWS V14.00,2013-01-01 11:42:00,
2013-01-01 06:50:00,33.0,32.5,30.08,West,271,0.0,0.0,98,0.00,,BKN055,0.06,VWS V14.00,2013-01-01 11:50:00,
2013-01-01 06:52:00,33.0,32.5,30.08,West,271,0.0,0.0,98,0.00,,BKN055,0.06,VWS V14.00,2013-01-01 11:52:00,
2013-01-01 07:00:00,33.1,32.6,30.08,West,271,0.0,0.0,98,0.00,,BKN055,0.06,VWS V14.00,2013-01-01 12:00:00,
2013-01-01 07:02:00,33.1,32.6,30.08,West,271,0.0,0.0,98,0.00,,BKN055,0.06,VWS V14.00,2013-01-01 12:02:00,
2013-01-01 07:10:00,33.0,32.5,30.09,West,272,0.0,0.0,98,0.00,,BKN055,0.06,VWS V14.00,2013-01-01 12:10:00,
2013-01-01 07:12:00,33.0,32.5,30.09,West,272,0.0,0.0,98,0.00,,BKN055,0.06,VWS V14.00,2013-01-01 12:12:00,
2013-01-01 07:20:00,33.0,32.5,30.09,West,271,0.0,0.0,98,0.00,,BKN055,0.06,VWS V14.00,2013-01-01 12:20:00,
2013-01-01 07:22:00,33.0,32.5,30.09,West,271,0.0,0.0,98,0.00,,BKN055,0.06,VWS V14.00,2013-01-01 12:22:00,
2013-01-01 07:30:00,33.0,32.5,30.09,West,271,0.0,0.0,98,0.00,,BKN055,0.06,VWS V14.00,2013-01-01 12:30:00,
2013-01-01 07:32:00,33.0,32.5,30.09,West,271,0.0,0.0,98,0.00,,BKN055,0.06,VWS V14.00,2013-01-01 12:32:00,
2013-01-01 07:40:00,33.2,32.7,30.09,West,271,0.0,0.0,98,0.00,,BKN055,0.06,VWS V14.00,2013-01-01 12:40:00,
2013-01-01 07:42:00,33.2,32.7,30.09,West,271,0.0,0.0,98,0.00,,BKN055,0.06,VWS V14.00,2013-01-01 12:42:00,
2013-01-01 07:50:00,33.1,32.6,30.10,West,273,0.0,2.0,98,0.00,,BKN055,0.06,VWS V14.00,2013-01-01 12:50:00,
2013-01-01 07:52:00,33.1,32.6,30.10,West,273,0.0,2.0,98,0.00,,BKN055,0.06,VWS V14.00,2013-01-01 12:52:00,
2013-01-01 08:00:00,33.0,32.5,30.09,West,273,0.0,0.0,98,0.00,,BKN055,0.06,VWS V14.00,2013-01-01 13:00:00,
2013-01-01 08:02:00,33.0,32.5,30.09,West,273,0.0,0.0,98,0.00,,BKN055,0.06,VWS V14.00,2013-01-01 13:02:00,
2013-01-01 08:10:00,33.0,32.5,30.09,West,273,0.0,0.0,98,0.00,,BKN055,0.06,VWS V14.00,2013-01-01 13:10:00,
2013-01-01 08:12:00,33.0,32.5,30.09,West,273,0.0,0.0,98,0.00,,BKN055,0.06,VWS V14.00,2013-01-01 13:12:00,
2013-01-01 08:20:00,33.1,32.6,30.08,West,273,0.0,0.0,98,0.00,,BKN055,0.06,VWS V14.00,2013-01-01 13:20:00,
2013-01-01 08:22:00,33.1,32.6,30.08,West,273,0.0,0.0,98,0.00,,BKN055,0.06,VWS V14.00,2013-01-01 13:22:00,
2013-01-01 08:30:00,33.2,32.7,30.09,West,273,0.0,0.0,98,0.00,,BKN055,0.06,VWS V14.00,2013-01-01 13:30:00,
2013-01-01 08:32:00,33.2,32.7,30.09,West,273,0.0,0.0,98,0.00,,BKN055,0.06,VWS V14.00,2013-01-01 13:32:00,
2013-01-01 08:40:00,33.3,32.8,30.10,West,273,0.0,0.0,98,0.00,,BKN055,0.06,VWS V14.00,2013-01-01 13:40:00,
2013-01-01 08:42:00,33.3,32.8,30.10,West,273,0.0,0.0,98,0.00,,BKN055,0.06,VWS V14.00,2013-01-01 13:42:00,
2013-01-01 08:50:00,33.4,32.9,30.10,West,273,0.0,0.0,98,0.00,,BKN055,0.06,VWS V14.00,2013-01-01 13:50:00,
2013-01-01 08:52:00,33.4,32.9,30.10,West,273,0.0,0.0,98,0.00,,BKN055,0.06,VWS V14.00,2013-01-01 13:52:00,
2013-01-01 09:00:00,33.5,33.0,30.09,West,273,0.0,0.0,98,0.01,,BKN055,0.07,VWS V14.00,2013-01-01 14:00:00,
2013-01-01 09:02:00,33.5,33.0,30.09,West,273,0.0,0.0,98,0.01,,BKN055,0.07,VWS V14.00,2013-01-01 14:02:00,
2013-01-01 09:10:00,33.7,33.2,30.08,West,273,0.0,0.0,98,0.01,,BKN055,0.07,VWS V14.00,2013-01-01 14:10:00,
2013-01-01 09:12:00,33.7,33.2,30.08,West,273,0.0,0.0,98,0.01,,BKN055,0.07,VWS V14.00,2013-01-01 14:12:00,
2013-01-01 09:20:00,34.0,33.5,30.08,West,273,0.0,0.0,98,0.01,,BKN055,0.07,VWS V14.00,2013-01-01 14:20:00,
2013-01-01 09:22:00,34.0,33.5,30.08,West,273,0.0,0.0,98,0.01,,BKN055,0.07,VWS V14.00,2013-01-01 14:22:00,
2013-01-01 09:30:00,34.3,33.8,30.09,West,273,0.0,0.0,98,0.01,,BKN055,0.07,VWS V14.00,2013-01-01 14:30:00,
2013-01-01 09:32:00,34.3,33.8,30.09,West,273,0.0,0.0,98,0.01,,BKN055,0.07,VWS V14.00,2013-01-01 14:32:00,
2013-01-01 09:40:00,34.3,33.8,30.08,West,273,0.0,1.0,98,0.01,,BKN055,0.07,VWS V14.00,2013-01-01 14:40:00,
2013-01-01 09:42:00,34.3,33.8,30.08,West,273,0.0,1.0,98,0.01,,BKN055,0.07,VWS V14.00,2013-01-01 14:42:00,
2013-01-01 09:50:00,34.4,33.9,30.07,West,273,0.0,0.0,98,0.01,,BKN055,0.07,VWS V14.00,2013-01-01 14:50:00,
2013-01-01 09:52:00,34.4,33.9,30.07,West,273,0.0,0.0,98,0.01,,BKN055,0.07,VWS V14.00,2013-01-01 14:52:00,
2013-01-01 10:00:00,34.4,33.9,30.08,West,273,0.0,0.0,98,0.01,,BKN055,0.07,VWS V14.00,2013-01-01 15:00:00,
2013-01-01 10:02:00,34.4,33.9,30.08,West,273,0.0,0.0,98,0.01,,BKN055,0.07,VWS V14.00,2013-01-01 15:02:00,
2013-01-01 10:10:00,34.4,33.9,30.09,West,273,0.0,0.0,98,0.00,,BKN055,0.07,VWS V14.00,2013-01-01 15:10:00,
2013-01-01 10:12:00,34.4,33.9,30.09,West,273,0.0,0.0,98,0.00,,BKN055,0.07,VWS V14.00,2013-01-01 15:12:00,
2013-01-01 10:20:00,34.4,33.9,30.09,NW,323,1.0,2.0,98,0.00,,BKN055,0.07,VWS V14.00,2013-01-01 15:20:00,
2013-01-01 10:22:00,34.4,33.9,30.09,NW,323,1.0,2.0,98,0.00,,BKN055,0.07,VWS V14.00,2013-01-01 15:22:00,
2013-01-01 10:30:00,34.4,33.6,30.10,NNW,333,2.0,5.0,97,0.00,,BKN055,0.07,VWS V14.00,2013-01-01 15:30:00,
2013-01-01 10:32:00,34.4,33.6,30.10,NNW,333,2.0,5.0,97,0.00,,BKN055,0.07,VWS V14.00,2013-01-01 15:32:00,
2013-01-01 10:40:00,34.6,33.8,30.10,North,349,2.0,4.0,97,0.00,,BKN055,0.07,VWS V14.00,2013-01-01 15:40:00,
2013-01-01 10:42:00,34.6,33.8,30.10,North,349,2.0,4.0,97,0.00,,BKN055,0.07,VWS V14.00,2013-01-01 15:42:00,
2013-01-01 10:50:00,34.7,33.7,30.11,NNW,329,2.0,4.0,96,0.00,,BKN055,0.07,VWS V14.00,2013-01-01 15:50:00,
2013-01-01 10:52:00,34.7,33.7,30.11,NNW,329,2.0,4.0,96,0.00,,BKN055,0.07,VWS V14.00,2013-01-01 15:52:00,
2013-01-01 11:00:00,34.8,33.5,30.11,NW,314,3.0,6.0,95,0.00,,BKN055,0.07,VWS V14.00,2013-01-01 16:00:00,
2013-01-01 11:02:00,34.8,33.5,30.11,NW,314,3.0,6.0,95,0.00,,BKN055,0.07,VWS V14.00,2013-01-01 16:02:00,
2013-01-01 11:10:00,34.9,33.3,30.12,WNW,294,4.0,5.0,94,0.00,,BKN055,0.07,VWS V14.00,2013-01-01 16:10:00,
2013-01-01 11:12:00,34.9,33.3,30.12,WNW,294,4.0,5.0,94,0.00,,BKN055,0.07,VWS V14.00,2013-01-01 16:12:00,
2013-01-01 11:20:00,35.0,33.2,30.12,NNW,337,5.0,6.0,93,0.00,,BKN055,0.07,VWS V14.00,2013-01-01 16:20:00,
2013-01-01 11:22:00,35.0,33.2,30.12,NNW,337,5.0,6.0,93,0.00,,BKN055,0.07,VWS V14.00,2013-01-01 16:22:00,
2013-01-01 11:30:00,35.2,33.4,30.13,WNW,297,0.0,5.0,93,0.00,,BKN055,0.07,VWS V14.00,2013-01-01 16:30:00,
2013-01-01 11:32:00,35.2,33.4,30.13,WNW,297,0.0,5.0,93,0.00,,BKN055,0.07,VWS V14.00,2013-01-01 16:32:00,
2013-01-01 11:40:00,35.2,33.4,30.12,NNW,332,3.0,5.0,93,0.00,,BKN055,0.07,VWS V14.00,2013-01-01 16:40:00,
2013-01-01 11:42:00,35.2,33.4,30.12,NNW,332,3.0,5.0,93,0.00,,BKN055,0.07,VWS V14.00,2013-01-01 16:42:00,
2013-01-01 11:50:00,35.1,33.0,30.11,NNW,345,3.0,7.0,92,0.00,,BKN055,0.07,VWS V14.00,2013-01-01 16:50:00,
2013-01-01 11:52:00,35.1,33.0,30.11,NNW,345,3.0,7.0,92,0.00,,BKN055,0.07,VWS V14.00,2013-01-01 16:52:00,
2013-01-01 12:00:00,35.1,33.0,30.09,NNW,341,1.0,7.0,92,0.00,,BKN055,0.07,VWS V14.00,2013-01-01 17:00:00,
2013-01-01 12:02:00,35.1,33.0,30.09,NNW,341,1.0,7.0,92,0.00,,BKN055,0.07,VWS V14.00,2013-01-01 17:02:00,
2013-01-01 12:10:00,35.1,32.7,30.08,NNW,336,4.0,6.0,91,0.00,,BKN055,0.07,VWS V14.00,2013-01-01 17:10:00,
2013-01-01 12:12:00,35.1,32.7,30.08,NNW,336,4.0,6.0,91,0.00,,BKN055,0.07,VWS V14.00,2013-01-01 17:12:00,
2013-01-01 12:20:00,35.2,33.1,30.08,NW,306,2.0,5.0,92,0.00,,BKN055,0.07,VWS V14.00,2013-01-01 17:20:00,
2013-01-01 12:22:00,35.2,33.1,30.08,NW,306,2.0,5.0,92,0.00,,BKN055,0.07,VWS V14.00,2013-01-01 17:22:00,
2013-01-01 12:30:00,35.2,33.1,30.07,NNW,338,3.0,7.0,92,0.00,,BKN055,0.07,VWS V14.00,2013-01-01 17:30:00,
2013-01-01 12:32:00,35.2,33.1,30.07,NNW,338,3.0,7.0,92,0.00,,BKN055,0.07,VWS V14.00,2013-01-01 17:32:00,
2013-01-01 12:40:00,35.1,32.7,30.07,North,360,4.0,6.0,91,0.00,,BKN055,0.07,VWS V14.00,2013-01-01 17:40:00,
2013-01-01 12:42:00,35.1,32.7,30.07,North,360,4.0,6.0,91,0.00,,BKN055,0.07,VWS V14.00,2013-01-01 17:42:00,
2013-01-01 12:50:00,35.2,33.1,30.07,North,349,3.0,7.0,92,0.00,,BKN055,0.07,VWS V14.00,2013-01-01 17:50:00,
2013-01-01 12:52:00,35.2,33.1,30.07,North,349,3.0,7.0,92,0.00,,BKN055,0.07,VWS V14.00,2013-01-01 17:52:00,
2013-01-01 13:00:00,35.3,32.9,30.06,North,360,3.0,5.0,91,0.00,,BKN055,0.07,VWS V14.00,2013-01-01 18:00:00,
2013-01-01 13:02:00,35.3,32.9,30.06,North,360,3.0,5.0,91,0.00,,BKN055,0.07,VWS V14.00,2013-01-01 18:02:00,
2013-01-01 13:10:00,35.2,32.6,30.07,North,5,3.0,5.0,90,0.00,,BKN055,0.07,VWS V14.00,2013-01-01 18:10:00,
2013-01-01 13:12:00,35.2,32.6,30.07,North,5,3.0,5.0,90,0.00,,BKN055,0.07,VWS V14.00,2013-01-01 18:12:00,
2013-01-01 13:20:00,35.2,32.6,30.08,NNW,338,0.0,4.0,90,0.00,,BKN055,0.07,VWS V14.00,2013-01-01 18:20:00,
2013-01-01 13:22:00,35.2,32.6,30.08,NNW,338,0.0,4.0,90,0.00,,BKN055,0.07,VWS V14.00,2013-01-01 18:22:00,
2013-01-01 13:30:00,35.2,32.6,30.08,NW,309,3.0,9.0,90,0.00,,BKN055,0.07,VWS V14.00,2013-01-01 18:30:00,
2013-01-01 13:32:00,35.2,32.6,30.08,NW,309,3.0,9.0,90,0.00,,BKN055,0.07,VWS V14.00,2013-01-01 18:32:00,
2013-01-01 13:40:00,35.0,32.6,30.09,NW,315,2.0,7.0,91,0.00,,BKN055,0.07,VWS V14.00,2013-01-01 18:40:00,
2013-01-01 13:42:00,35.0,32.6,30.09,NW,315,2.0,7.0,91,0.00,,BKN055,0.07,VWS V14.00,2013-01-01 18:42:00,
2013-01-01 13:50:00,34.6,32.0,30.08,NNW,342,4.0,9.0,90,0.00,,BKN055,0.07,VWS V14.00,2013-01-01 18:50:00,
2013-01-01 13:52:00,34.6,32.0,30.08,NNW,342,4.0,9.0,90,0.00,,BKN055,0.07,VWS V14.00,2013-01-01 18:52:00,
2013-01-01 14:00:00,34.5,31.9,30.08,NNW,327,4.0,6.0,90,0.00,,BKN055,0.07,VWS V14.00,2013-01-01 19:00:00,
2013-01-01 14:02:00,34.5,31.9,30.08,NNW,327,4.0,6.0,90,0.00,,BKN055,0.07,VWS V14.00,2013-01-01 19:02:00,
2013-01-01 14:10:00,34.7,32.1,30.09,NW,313,2.0,6.0,90,0.00,,BKN055,0.07,VWS V14.00,2013-01-01 19:10:00,
2013-01-01 14:12:00,34.7,32.1,30.09,NW,313,2.0,6.0,90,0.00,,BKN055,0.07,VWS V14.00,2013-01-01 19:12:00,
2013-01-01 14:20:00,34.7,32.1,30.09,NW,311,1.0,7.0,90,0.00,,BKN055,0.07,VWS V14.00,2013-01-01 19:20:00,
2013-01-01 14:22:00,34.7,32.1,30.09,NW,311,1.0,7.0,90,0.00,,BKN055,0.07,VWS V14.00,2013-01-01 19:22:00,
2013-01-01 14:30:00,34.8,32.2,30.08,NNW,331,3.0,5.0,90,0.00,,BKN055,0.07,VWS V14.00,2013-01-01 19:30:00,
2013-01-01 14:32:00,34.8,32.2,30.08,NNW,331,3.0,5.0,90,0.00,,BKN055,0.07,VWS V14.00,2013-01-01 19:32:00,
2013-01-01 14:40:00,35.0,32.4,30.08,NW,306,3.0,6.0,90,0.00,,BKN055,0.07,VWS V14.00,2013-01-01 19:40:00,
2013-01-01 14:42:00,35.0,32.4,30.08,NW,306,3.0,6.0,90,0.00,,BKN055,0.07,VWS V14.00,2013-01-01 19:42:00,
2013-01-01 14:50:00,35.2,32.6,30.08,NW,325,3.0,7.0,90,0.00,,BKN055,0.07,VWS V14.00,2013-01-01 19:50:00,
2013-01-01 14:52:00,35.2,32.6,30.08,NW,325,3.0,7.0,90,0.00,,BKN055,0.07,VWS V14.00,2013-01-01 19:52:00,
2013-01-01 15:00:00,35.2,32.0,30.09,NW,319,6.0,6.0,88,0.00,,BKN055,0.07,VWS V14.00,2013-01-01 20:00:00,
2013-01-01 15:02:00,35.2,32.0,30.09,NW,319,6.0,6.0,88,0.00,,BKN055,0.07,VWS V14.00,2013-01-01 20:02:00,
2013-01-01 15:10:00,35.1,31.9,30.09,NW,304,0.0,6.0,88,0.00,,BKN055,0.07,VWS V14.00,2013-01-01 20:10:00,
2013-01-01 15:12:00,35.1,31.9,30.09,NW,304,0.0,6.0,88,0.00,,BKN055,0.07,VWS V14.00,2013-01-01 20:12:00,
2013-01-01 15:20:00,35.1,31.9,30.08,NNW,329,0.0,3.0,88,0.00,,BKN055,0.07,VWS V14.00,2013-01-01 20:20:00,
2013-01-01 15:22:00,35.1,31.9,30.08,NNW,329,0.0,3.0,88,0.00,,BKN055,0.07,VWS V14.00,2013-01-01 20:22:00,
2013-01-01 15:30:00,35.1,31.9,30.08,NNW,348,3.0,5.0,88,0.00,,BKN055,0.07,VWS V14.00,2013-01-01 20:30:00,
2013-01-01 15:32:00,35.1,31.9,30.08,NNW,348,3.0,5.0,88,0.00,,BKN055,0.07,VWS V14.00,2013-01-01 20:32:00,
2013-01-01 15:40:00,35.0,31.8,30.08,NW,319,3.0,5.0,88,0.00,,BKN055,0.07,VWS V14.00,2013-01-01 20:40:00,
2013-01-01 15:42:00,35.0,31.8,30.08,NW,319,3.0,5.0,88,0.00,,BKN055,0.07,VWS V14.00,2013-01-01 20:42:00,
2013-01-01 15:50:00,34.8,31.6,30.07,NNW,344,5.0,7.0,88,0.00,,BKN055,0.07,VWS V14.00,2013-01-01 20:50:00,
2013-01-01 15:52:00,34.8,31.6,30.07,NNW,344,5.0,7.0,88,0.00,,BKN055,0.07,VWS V14.00,2013-01-01 20:52:00,
2013-01-01 16:00:00,34.7,31.5,30.08,NW,306,5.0,9.0,88,0.00,,BKN055,0.07,VWS V14.00,2013-01-01 21:00:00,
2013-01-01 16:02:00,34.7,31.5,30.08,NW,306,5.0,9.0,88,0.00,,BKN055,0.07,VWS V14.00,2013-01-01 21:02:00,
2013-01-01 16:10:00,34.4,31.2,30.08,NNW,339,3.0,8.0,88,0.00,,BKN055,0.07,VWS V14.00,2013-01-01 21:10:00,
2013-01-01 16:12:00,34.4,31.2,30.08,NNW,339,3.0,8.0,88,0.00,,BKN055,0.07,VWS V14.00,2013-01-01 21:12:00,
2013-01-01 16:20:00,34.4,30.9,30.09,NW,314,2.0,7.0,87,0.00,,BKN055,0.07,VWS V14.00,2013-01-01 21:20:00,
2013-01-01 16:22:00,34.4,30.9,30.09,NW,314,2.0,7.0,87,0.00,,BKN055,0.07,VWS V14.00,2013-01-01 21:22:00,
2013-01-01 16:30:00,34.4,30.6,30.08,NNW,344,3.0,4.0,86,0.00,,BKN055,0.07,VWS V14.00,2013-01-01 21:30:00,
2013-01-01 16:32:00,34.4,30.6,30.08,NNW,344,3.0,4.0,86,0.00,,BKN055,0.07,VWS V14.00,2013-01-01 21:32:00,
2013-01-01 16:40:00,34.4,30.6,30.08,NW,304,3.0,4.0,86,0.00,,BKN055,0.07,VWS V14.00,2013-01-01 21:40:00,
2013-01-01 16:42:00,34.4,30.6,30.08,NW,304,3.0,4.0,86,0.00,,BKN055,0.07,VWS V14.00,2013-01-01 21:42:00,
2013-01-01 16:50:00,34.4,30.6,30.08,NNW,336,3.0,5.0,86,0.00,,BKN055,0.07,VWS V14.00,2013-01-01 21:50:00,
2013-01-01 16:52:00,34.4,30.6,30.08,NNW,336,3.0,5.0,86,0.00,,BKN055,0.07,VWS V14.00,2013-01-01 21:52:00,
2013-01-01 17:00:00,34.3,30.3,30.09,North,360,5.0,6.0,85,0.00,,BKN055,0.07,VWS V14.00,2013-01-01 22:00:00,
2013-01-01 17:02:00,34.3,30.3,30.09,North,360,5.0,6.0,85,0.00,,BKN055,0.07,VWS V14.00,2013-01-01 22:02:00,
2013-01-01 17:10:00,34.1,29.8,30.09,North,360,1.0,5.0,84,0.00,,BKN055,0.07,VWS V14.00,2013-01-01 22:10:00,
2013-01-01 17:12:00,34.1,29.8,30.09,North,360,1.0,5.0,84,0.00,,BKN055,0.07,VWS V14.00,2013-01-01 22:12:00,
2013-01-01 17:20:00,33.8,29.5,30.08,NNW,341,5.0,6.0,84,0.00,,BKN055,0.07,VWS V14.00,2013-01-01 22:20:00,
2013-01-01 17:22:00,33.8,29.5,30.08,NNW,341,5.0,6.0,84,0.00,,BKN055,0.07,VWS V14.00,2013-01-01 22:22:00,
2013-01-01 17:30:00,33.7,29.4,30.09,NNW,346,3.0,6.0,84,0.00,,BKN055,0.07,VWS V14.00,2013-01-01 22:30:00,
2013-01-01 17:32:00,33.7,29.4,30.09,NNW,346,3.0,6.0,84,0.00,,BKN055,0.07,VWS V14.00,2013-01-01 22:32:00,
2013-01-01 17:40:00,33.6,29.6,30.09,North,349,2.0,4.0,85,0.00,,BKN055,0.07,VWS V14.00,2013-01-01 22:40:00,
2013-01-01 17:42:00,33.6,29.6,30.09,North,349,2.0,4.0,85,0.00,,BKN055,0.07,VWS V14.00,2013-01-01 22:42:00,
2013-01-01 17:50:00,33.4,29.4,30.09,NNW,340,0.0,5.0,85,0.00,,BKN055,0.07,VWS V14.00,2013-01-01 22:50:00,
2013-01-01 17:52:00,33.4,29.4,30.09,NNW,340,0.0,5.0,85,0.00,,BKN055,0.07,VWS V14.00,2013-01-01 22:52:00,
2013-01-01 18:00:00,33.4,29.7,30.08,North,350,0.0,4.0,86,0.00,,BKN055,0.07,VWS V14.00,2013-01-01 23:00:00,
2013-01-01 18:02:00,33.4,29.7,30.08,North,350,0.0,4.0,86,0.00,,BKN055,0.07,VWS V14.00,2013-01-01 23:02:00,
2013-01-01 18:10:00,33.2,29.5,30.09,NNE,23,0.0,4.0,86,0.00,,BKN055,0.07,VWS V14.00,2013-01-01 23:10:00,
2013-01-01 18:12:00,33.2,29.5,30.09,NNE,23,0.0,4.0,86,0.00,,BKN055,0.07,VWS V14.00,2013-01-01 23:12:00,
2013-01-01 18:20:00,33.2,29.5,30.11,NNE,15,0.0,2.0,86,0.00,,BKN055,0.07,VWS V14.00,2013-01-01 23:20:00,
2013-01-01 18:22:00,33.2,29.5,30.11,NNE,15,0.0,2.0,86,0.00,,BKN055,0.07,VWS V14.00,2013-01-01 23:22:00,
2013-01-01 18:30:00,33.2,29.5,30.11,NNE,15,0.0,0.0,86,0.00,,BKN055,0.07,VWS V14.00,2013-01-01 23:30:00,
2013-01-01 18:32:00,33.2,29.5,30.11,NNE,15,0.0,0.0,86,0.00,,BKN055,0.07,VWS V14.00,2013-01-01 23:32:00,
2013-01-01 18:40:00,33.1,29.4,30.11,NNE,15,0.0,3.0,86,0.00,,BKN055,0.07,VWS V14.00,2013-01-01 23:40:00,
2013-01-01 18:42:00,33.1,29.4,30.11,NNE,15,0.0,3.0,86,0.00,,BKN055,0.07,VWS V14.00,2013-01-01 23:42:00,
2013-01-01 18:50:00,33.1,29.7,30.11,NNE,17,0.0,0.0,87,0.00,,BKN055,0.07,VWS V14.00,2013-01-01 23:50:00,
2013-01-01 18:52:00,33.1,29.7,30.11,NNE,17,0.0,0.0,87,0.00,,BKN055,0.07,VWS V14.00,2013-01-01 23:52:00,
2013-01-01 19:00:00,33.0,29.6,30.10,NNE,17,0.0,0.0,87,0.00,,BKN055,0.07,VWS V14.00,2013-01-02 00:00:00,
2013-01-01 19:02:00,33.0,29.6,30.10,NNE,17,0.0,0.0,87,0.00,,BKN055,0.07,VWS V14.00,2013-01-02 00:02:00,
2013-01-01 19:10:00,32.9,29.2,30.10,NE,41,2.0,4.0,86,0.00,,BKN055,0.07,VWS V14.00,2013-01-02 00:10:00,
2013-01-01 19:12:00,32.9,29.2,30.10,NE,41,2.0,4.0,86,0.00,,BKN055,0.07,VWS V14.00,2013-01-02 00:12:00,
2013-01-01 19:20:00,32.8,29.1,30.10,NE,38,0.0,3.0,86,0.00,,BKN055,0.07,VWS V14.00,2013-01-02 00:20:00,
2013-01-01 19:22:00,32.8,29.1,30.10,NE,38,0.0,3.0,86,0.00,,BKN055,0.07,VWS V14.00,2013-01-02 00:22:00,
2013-01-01 19:30:00,32.7,29.0,30.11,NE,38,0.0,0.0,86,0.00,,BKN055,0.07,VWS V14.00,2013-01-02 00:30:00,
2013-01-01 19:32:00,32.7,29.0,30.11,NE,38,0.0,0.0,86,0.00,,BKN055,0.07,VWS V14.00,2013-01-02 00:32:00,
2013-01-01 19:40:00,32.7,29.0,30.13,NNE,32,2.0,3.0,86,0.00,,BKN055,0.07,VWS V14.00,2013-01-02 00:40:00,
2013-01-01 19:42:00,32.7,29.0,30.13,NNE,32,2.0,3.0,86,0.00,,BKN055,0.07,VWS V14.00,2013-01-02 00:42:00,
2013-01-01 19:50:00,32.6,28.9,30.13,NNE,32,0.0,2.0,86,0.00,,BKN055,0.07,VWS V14.00,2013-01-02 00:50:00,
2013-01-01 19:52:00,32.6,28.9,30.13,NNE,32,0.0,2.0,86,0.00,,BKN055,0.07,VWS V14.00,2013-01-02 00:52:00,
2013-01-01 20:00:00,32.6,29.2,30.13,NNE,32,0.0,0.0,87,0.00,,BKN055,0.07,VWS V14.00,2013-01-02 01:00:00,
2013-01-01 20:02:00,32.6,29.2,30.13,NNE,32,0.0,0.0,87,0.00,,BKN055,0.07,VWS V14.00,2013-01-02 01:02:00,
2013-01-01 20:10:00,32.5,29.1,30.13,NW,321,4.0,5.0,87,0.00,,BKN055,0.07,VWS V14.00,2013-01-02 01:10:00,
2013-01-01 20:12:00,32.5,29.1,30.13,NW,321,4.0,5.0,87,0.00,,BKN055,0.07,VWS V14.00,2013-01-02 01:12:00,
2013-01-01 20:20:00,32.4,29.0,30.12,North,355,2.0,4.0,87,0.00,,BKN055,0.07,VWS V14.00,2013-01-02 01:20:00,
2013-01-01 20:22:00,32.4,29.0,30.12,North,355,2.0,4.0,87,0.00,,BKN055,0.07,VWS V14.00,2013-01-02 01:22:00,
2013-01-01 20:30:00,32.2,29.0,30.13,NNW,337,1.0,5.0,88,0.00,,BKN055,0.07,VWS V14.00,2013-01-02 01:30:00,
2013-01-01 20:32:00,32.2,29.0,30.13,NNW,337,1.0,5.0,88,0.00,,BKN055,0.07,VWS V14.00,2013-01-02 01:32:00,
2013-01-01 20:40:00,32.0,28.9,30.13,NNW,330,0.0,4.0,88,0.00,,BKN055,0.07,VWS V14.00,2013-01-02 01:40:00,
2013-01-01 20:42:00,32.0,28.9,30.13,NNW,330,0.0,4.0,88,0.00,,BKN055,0.07,VWS V14.00,2013-01-02 01:42:00,
2013-01-01 20:50:00,31.9,28.8,30.13,NNW,344,0.0,3.0,88,0.00,,BKN055,0.07,VWS V14.00,2013-01-02 01:50:00,
2013-01-01 20:52:00,31.9,28.8,30.13,NNW,344,0.0,3.0,88,0.00,,BKN055,0.07,VWS V14.00,2013-01-02 01:52:00,
2013-01-01 21:00:00,31.9,28.8,30.13,North,360,0.0,3.0,88,0.00,,BKN055,0.07,VWS V14.00,2013-01-02 02:00:00,
2013-01-01 21:02:00,31.9,28.8,30.13,North,360,0.0,3.0,88,0.00,,BKN055,0.07,VWS V14.00,2013-01-02 02:02:00,
2013-01-01 21:10:00,31.6,27.6,30.14,North,360,5.0,6.0,85,0.00,,BKN055,0.07,VWS V14.00,2013-01-02 02:10:00,
2013-01-01 21:12:00,31.6,27.6,30.14,North,360,5.0,6.0,85,0.00,,BKN055,0.07,VWS V14.00,2013-01-02 02:12:00,
2013-01-01 21:20:00,31.4,26.5,30.14,NNE,15,3.0,10.0,82,0.00,,BKN055,0.07,VWS V14.00,2013-01-02 02:20:00,
2013-01-01 21:22:00,31.4,26.5,30.14,NNE,15,3.0,10.0,82,0.00,,BKN055,0.07,VWS V14.00,2013-01-02 02:22:00,
2013-01-01 21:30:00,31.3,26.5,30.14,North,9,3.0,8.0,82,0.00,,BKN055,0.07,VWS V14.00,2013-01-02 02:30:00,
2013-01-01 21:32:00,31.3,26.5,30.14,North,9,3.0,8.0,82,0.00,,BKN055,0.07,VWS V14.00,2013-01-02 02:32:00,
2013-01-01 21:40:00,31.2,26.1,30.15,North,360,4.0,7.0,81,0.00,,BKN055,0.07,VWS V14.00,2013-01-02 02:40:00,
2013-01-01 21:42:00,31.2,26.1,30.15,North,360,4.0,7.0,81,0.00,,BKN055,0.07,VWS V14.00,2013-01-02 02:42:00,
2013-01-01 21:50:00,31.2,26.4,30.14,NNE,32,0.0,5.0,82,0.00,,BKN055,0.07,VWS V14.00,2013-01-02 02:50:00,
2013-01-01 21:52:00,31.2,26.4,30.14,NNE,32,0.0,5.0,82,0.00,,BKN055,0.07,VWS V14.00,2013-01-02 02:52:00,
2013-01-01 22:00:00,31.0,25.6,30.16,North,360,7.0,7.0,80,0.00,,BKN055,0.07,VWS V14.00,2013-01-02 03:00:00,
2013-01-01 22:02:00,31.0,25.6,30.16,North,360,7.0,7.0,80,0.00,,BKN055,0.07,VWS V14.00,2013-01-02 03:02:00,
2013-01-01 22:10:00,31.0,25.0,30.15,North,360,6.0,10.0,78,0.00,,BKN055,0.07,VWS V14.00,2013-01-02 03:10:00,
2013-01-01 22:12:00,31.0,25.0,30.15,North,360,6.0,10.0,78,0.00,,BKN055,0.07,VWS V14.00,2013-01-02 03:12:00,
2013-01-01 22:20:00,30.8,24.8,30.15,NNW,343,8.0,8.0,78,0.00,,BKN055,0.07,VWS V14.00,2013-01-02 03:20:00,
2013-01-01 22:22:00,30.8,24.8,30.15,NNW,343,8.0,8.0,78,0.00,,BKN055,0.07,VWS V14.00,2013-01-02 03:22:00,
2013-01-01 22:30:00,30.7,24.0,30.15,North,5,4.0,10.0,76,0.00,,BKN055,0.07,VWS V14.00,2013-01-02 03:30:00,
2013-01-01 22:32:00,30.7,24.0,30.15,North,5,4.0,10.0,76,0.00,,BKN055,0.07,VWS V14.00,2013-01-02 03:32:00,
2013-01-01 22:40:00,30.6,24.6,30.15,North,9,0.0,7.0,78,0.00,,BKN055,0.07,VWS V14.00,2013-01-02 03:40:00,
2013-01-01 22:42:00,30.6,24.6,30.15,North,9,0.0,7.0,78,0.00,,BKN055,0.07,VWS V14.00,2013-01-02 03:42:00,
2013-01-01 22:50:00,30.6,24.3,30.15,NE,37,3.0,6.0,77,0.00,,BKN055,0.07,VWS V14.00,2013-01-02 03:50:00,
2013-01-01 22:52:00,30.6,24.3,30.15,NE,37,3.0,6.0,77,0.00,,BKN055,0.07,VWS V14.00,2013-01-02 03:52:00,
2013-01-01 23:00:00,30.5,24.2,30.15,North,360,3.0,5.0,77,0.00,,BKN055,0.07,VWS V14.00,2013-01-02 04:00:00,
2013-01-01 23:02:00,30.5,24.2,30.15,North,360,3.0,5.0,77,0.00,,BKN055,0.07,VWS V14.00,2013-01-02 04:02:00,
2013-01-01 23:10:00,30.5,24.2,30.15,North,360,4.0,4.0,77,0.00,,BKN055,0.07,VWS V14.00,2013-01-02 04:10:00,
2013-01-01 23:12:00,30.5,24.2,30.15,North,360,4.0,4.0,77,0.00,,BKN055,0.07,VWS V14.00,2013-01-02 04:12:00,
2013-01-01 23:20:00,30.5,24.5,30.16,NNE,19,4.0,4.0,78,0.00,,BKN055,0.07,VWS V14.00,2013-01-02 04:20:00,
2013-01-01 23:22:00,30.5,24.5,30.16,NNE,19,4.0,4.0,78,0.00,,BKN055,0.07,VWS V14.00,2013-01-02 04:22:00,
2013-01-01 23:30:00,30.4,24.7,30.15,NNE,13,0.0,4.0,79,0.00,,BKN055,0.07,VWS V14.00,2013-01-02 04:30:00,
2013-01-01 23:32:00,30.4,24.7,30.15,NNE,13,0.0,4.0,79,0.00,,BKN055,0.07,VWS V14.00,2013-01-02 04:32:00,
2013-01-01 23:40:00,30.3,24.3,30.16,North,5,2.0,5.0,78,0.00,,BKN055,0.07,VWS V14.00,2013-01-02 04:40:00,
2013-01-01 23:42:00,30.3,24.3,30.16,North,5,2.0,5.0,78,0.00,,BKN055,0.07,VWS V14.00,2013-01-02 04:42:00,
2013-01-01 23:50:00,30.3,24.6,30.17,North,5,0.0,4.0,79,0.00,,BKN055,0.07,VWS V14.00,2013-01-02 04:50:00,
2013-01-01 23:52:00,30.3,24.6,30.17,North,5,0.0,4.0,79,0.00,,BKN055,0.07,VWS V14.00,2013-01-02 04:52:00,